Weather History for Orange, MA

Change the Weather History Date:

Friday, March 14, 2014

  Actual Average Record
Temperature  
Mean Temperature 20 °F -  
Max Temperature 34 °F 37 °F 68 °F (2007)
Min Temperature 6 °F 19 °F 6 °F (2014)
Degree Days  
Heating Degree Days 45    
Moisture  
Dew Point 8 °F    
Average Humidity 55    
Maximum Humidity 80    
Minimum Humidity 38    
Precipitation  
Precipitation 0.00 in - - ()
Sea Level Pressure  
Sea Level Pressure 30.04 in    
Wind  
Wind Speed 7 mph (South)    
Max Wind Speed 16 mph    
Max Gust Speed 20 mph    
Visibility 10 miles    
Events      
Averages and records for this station are not official NWS values.
T = Trace of Precipitation, MM = Missing Value Source: NWS Daily Summary

Daily Weather History Graph

Daily Weather History Graph

Search for Another Location

Airport:

Trip Planner

Search our weather history database for the weather conditions in past years. The results will help you decide how hot, cold, wet, or windy it might be!

Date:

Astronomy

Mar. 14, 2014 Rise Set
Actual Time 7:02 AM EDT 6:54 PM EDT
Civil Twilight 6:34 AM EDT 7:22 PM EDT
Nautical Twilight 6:02 AM EDT 7:55 PM EDT
Astronomical Twilight 5:29 AM EDT 8:28 PM EDT
Moon 5:12 PM EDT (3/14) 5:43 AM EDT (3/14)
Length of Visible Light 12h 47m
Length of Day
11h 51m
Waxing Gibbous, 96% of the Moon is Illuminated
Mar 14
Waxing Gibbous
Mar 16
Full
Mar 23
Last Quarter
Mar 30
New
Apr 7
First Quarter

Hourly Weather History & Observations

Time (EDT) Temp. Windchill Dew Point Humidity Pressure Visibility Wind Dir Wind Speed Gust Speed Precip Events Conditions
12:52 AM 12.9 °F 5.2 °F -5.1 °F 45% 29.99 in 10.0 mi Variable 4.6 mph - N/A   Clear
1:52 AM 12.0 °F - -4.0 °F 49% 30.01 in 10.0 mi Calm Calm - N/A   Clear
2:52 AM 7.0 °F 0.1 °F -0.9 °F 70% 30.03 in 10.0 mi South 3.5 mph - N/A   Clear
3:52 AM 7.0 °F -1.7 °F -0.9 °F 70% 30.04 in 10.0 mi ENE 4.6 mph - N/A   Clear
4:52 AM 10.0 °F 1.8 °F -0.9 °F 61% 30.07 in 10.0 mi North 4.6 mph - N/A   Clear
5:52 AM 10.0 °F 3.6 °F 1.0 °F 67% 30.11 in 10.0 mi NW 3.5 mph - N/A   Mostly Cloudy
6:52 AM 6.1 °F -0.9 °F 1.0 °F 80% 30.13 in 10.0 mi South 3.5 mph - N/A   Clear
7:52 AM 8.1 °F 1.4 °F 3.0 °F 80% 30.16 in 10.0 mi East 3.5 mph - N/A   Mostly Cloudy
8:52 AM 16.0 °F 8.8 °F 6.1 °F 65% 30.17 in 10.0 mi South 4.6 mph - N/A   Overcast
9:52 AM 19.0 °F 6.8 °F 7.0 °F 59% 30.19 in 10.0 mi SSW 11.5 mph - N/A   Overcast
10:52 AM 21.0 °F 8.6 °F 7.0 °F 55% 30.17 in 10.0 mi South 12.7 mph - N/A   Mostly Cloudy
11:52 AM 24.1 °F 13.1 °F 7.0 °F 48% 30.16 in 10.0 mi South 11.5 mph - N/A   Overcast
12:52 PM 26.1 °F 13.6 °F 3.9 °F 39% 30.12 in 10.0 mi South 16.1 mph 19.6 mph N/A   Overcast
1:52 PM 28.0 °F 18.1 °F 5.0 °F 38% 30.08 in 10.0 mi South 11.5 mph - N/A   Overcast
2:52 PM 30.0 °F 20.5 °F 9.0 °F 41% 30.05 in 10.0 mi South 11.5 mph - N/A   Overcast
3:52 PM 32.0 °F 21.6 °F 10.9 °F 42% 30.03 in 10.0 mi South 15.0 mph - N/A   Clear
4:52 PM 33.1 °F 23.4 °F 12.0 °F 42% 29.99 in 10.0 mi SSE 13.8 mph - N/A   Clear
5:52 PM 34.0 °F 26.6 °F 14.0 °F 44% 29.96 in 10.0 mi South 9.2 mph - N/A   Clear
6:52 PM 33.1 °F 24.4 °F 16.0 °F 50% 29.95 in 10.0 mi South 11.5 mph 19.6 mph N/A   Clear
7:52 PM 34.0 °F 25.5 °F 17.1 °F 50% 29.95 in 10.0 mi South 11.5 mph - N/A   Clear
8:52 PM 33.1 °F 23.9 °F 17.1 °F 52% 29.94 in 10.0 mi South 12.7 mph - N/A   Clear
9:52 PM 33.1 °F 25.5 °F 19.0 °F 56% 29.95 in 10.0 mi South 9.2 mph - N/A   Clear
10:52 PM 32.0 °F 26.4 °F 19.9 °F 61% 29.93 in 10.0 mi SSE 5.8 mph - N/A   Clear
11:52 PM 33.1 °F 26.9 °F 21.0 °F 61% 29.89 in 10.0 mi SSE 6.9 mph - N/A   Clear